EDT,Max TemperatureF,Mean TemperatureF,Min TemperatureF,Max Dew PointF,MeanDew PointF,Min DewpointF,Max Humidity, Mean Humidity, Min Humidity, Max Sea Level PressureIn, Mean Sea Level PressureIn, Min Sea Level PressureIn, Max VisibilityMiles, Mean VisibilityMiles, Min VisibilityMiles, Max Wind SpeedMPH, Mean Wind SpeedMPH, Max Gust SpeedMPH,PrecipitationIn, CloudCover, Events, WindDirDegrees
2013-4-1,68,56,44,55,46,37,100,73,35,30.07,29.98,29.90,10,8,0,15,3,21,0.00,2,Fog,330
2013-4-2,57,48,39,39,31,27,71,52,33,30.23,30.16,30.07,10,10,10,15,7,20,0.00,3,,342
2013-4-3,57,50,42,45,31,27,100,52,38,30.22,30.18,30.12,10,10,7,14,8,18,0.00,5,Rain,348
2013-4-4,44,42,41,45,43,41,100,99,93,30.17,30.07,29.99,10,5,2,7,1,,0.06,8,Rain,183
2013-4-5,62,52,41,45,41,36,100,77,39,30.10,30.03,29.99,10,8,2,18,5,26,0.00,4,,354
2013-4-6,71,52,33,45,38,34,100,64,28,30.20,30.13,30.08,10,10,7,13,2,20,0.00,0,,160
2013-4-7,73,58,44,50,44,37,93,58,36,30.20,30.11,30.05,10,10,10,10,3,17,0.00,1,,165
2013-4-8,75,62,50,55,52,48,100,68,41,30.14,30.08,30.04,10,10,10,13,3,18,0.00,4,,168
2013-4-9,78,64,50,59,54,50,100,71,42,30.21,30.12,30.04,10,10,10,12,2,17,0.00,1,,166
2013-4-10,82,68,55,59,57,55,100,67,39,30.13,30.03,29.90,10,10,10,9,2,,0.00,2,,167
2013-4-11,78,69,60,64,59,55,100,73,54,29.92,29.82,29.65,10,10,3,14,5,26,0.04,4,Rain-Thunderstorm,162
2013-4-12,64,57,48,63,47,37,100,69,37,29.97,29.83,29.66,10,10,10,14,6,20,0.01,3,Rain,293
2013-4-13,71,56,42,46,42,37,100,66,33,30.08,30.01,29.97,10,10,10,13,3,17,0.00,0,,351
2013-4-14,62,52,42,55,49,43,100,90,52,30.05,29.99,29.93,10,10,7,15,1,20,0.00,4,Rain,158
2013-4-15,75,64,53,59,56,54,100,78,50,30.13,30.02,29.94,10,10,10,10,2,,0.00,5,,160
2013-4-16,80,70,59,63,61,59,100,77,54,30.25,30.18,30.12,10,10,10,10,5,17,0.00,5,,156
2013-4-17,82,71,60,64,63,59,100,80,51,30.22,30.16,30.06,10,10,10,13,2,22,0.00,4,Rain-Thunderstorm,152
2013-4-18,80,70,59,63,59,54,100,71,42,30.08,30.00,29.85,10,10,10,18,5,30,0.01,2,,156
2013-4-19,71,56,42,66,51,37,100,79,62,30.10,29.89,29.73,10,9,2,15,9,28,0.05,6,Rain,261
2013-4-20,60,46,33,39,34,32,100,62,34,30.26,30.20,30.10,10,10,10,14,6,21,0.00,0,,341
2013-4-21,69,53,37,41,36,34,100,52,27,30.35,30.29,30.22,10,10,10,12,4,16,0.00,0,,122
2013-4-22,69,58,48,50,43,39,77,56,38,30.33,30.24,30.14,10,10,10,10,4,16,0.00,0,,161
2013-4-23,71,58,44,50,44,37,87,58,40,30.23,30.15,30.05,10,10,10,10,3,,0.00,0,,172
2013-4-24,69,58,46,63,55,45,100,85,64,30.21,30.09,30.05,10,10,5,15,4,21,0.00,6,Rain-Thunderstorm,183
2013-4-25,64,52,41,45,40,34,100,70,32,30.35,30.28,30.21,10,10,7,16,9,21,0.00,1,,342
2013-4-26,73,57,41,52,40,36,100,56,27,30.38,30.33,30.21,10,10,5,12,3,17,0.00,1,Rain-Thunderstorm,334
2013-4-27,66,58,51,55,53,50,100,88,59,30.37,30.24,30.10,10,9,4,14,4,18,0.01,7,Rain-Thunderstorm,138
2013-4-28,59,57,55,59,56,54,100,98,82,30.13,30.05,29.98,10,8,2,16,6,22,0.08,8,Rain-Thunderstorm,148
2013-4-29,69,61,53,61,56,54,100,86,56,30.06,30.01,29.95,10,10,5,7,1,,0.00,5,,148
2013-4-30,77,64,50,63,55,50,100,83,44,30.10,30.03,29.97,10,7,0,8,1,,0.00,3,Fog,181